Location: Poughquag
(41.6090°N, 73.6820°W)
Time: 12:50:46
(UTC-04:00)

Tiros 1 despin weight - Pass Details

Date: 07 June 2020
Orbit: 593 x 642 km, 48.2° (Epoch: 07 July)

Event Time Altitude Azimuth Distance (km) Brightness Sun altitude
Rises 11:17:49 0° 285° (WNW) 2,930 ? 62.5°
Reaches altitude 10° 11:20:19 10° 295° (WNW) 2,015 ? 62.9°
Maximum altitude 11:24:36 36° 2° (N) 1,002 ? 63.5°
Drops below altitude 10° 11:28:49 10° 69° (ENE) 1,986 ? 64.2°
Sets 11:31:16 0° 78° (ENE) 2,882 ? 64.5°
